Vorticity
7 6 5 5 5 4 3 3 3 2 2 2 2 2 2 3 3 3 3 3 3 3 5 6 8 8 7 6 5 5 5 5 5 5 5 5 5 5 5 4 4 3 3 3 3 3 3 3 3 2 2 2
8 7 7 7 6 5 5 4 4 4 3 3 3 3 4 4 4 4 4 5 5 6 7 7 7 6 5 5 5 5 5 5 5 5 5 5 5 4 4 4 4 4 3 3 3 3 3 3 3 3 3 3
7 7 6 6 6 5 5 5 5 5 4 4 4 4 4 4 5 5 6 6 6 6 6 5 5 4 4 4 4 4 4 4 4 4 4 4 4 3 4 3 3 4 3 3 3 3 3 2 3 3 3 3
5 5 5 5 5 5 5 5 5 5 4 5 4 5 5 5 5 5 5 5 5 4 4 3 3 3 3 3 4 4 4 4 4 4 4 3 3 3 3 3 3 4 4 4 4 3 3 3 3 3 3 3
5 5 5 5 5 5 5 5 5 5 5 5 5 5 5 5 5 4 4 3 3 3 3 3 3 3 3 4 4 4 4 4 4 4 4 4 4 4 4 4 4 4 4 5 5 5 5 5 4 4 5 4
4 3 3 4 4 4 4 5 5 5 5 5 5 5 5 5 4 4 4 4 4 4 4 5 5 5 4 5 5 5 5 5 5 5 5 5 5 5 5 5 5 5 5 5 5 6 6 6 6 6 6 6
2 3 2 2 2 3 3 4 4 4 4 4 4 4 4 4 4 5 5 4 6 5 5 6 6 5 5 5 5 5 6 6 6 6 6 6 6 6 6 6 6 6 6 6 6 6 6 6 6 6 7 7
3 3 3 3 3 3 3 3 4 3 3 4 4 3 4 4 4 4 5 4 5 5 5 5 6 6 5 6 6 6 6 6 7 7 7 7 7 7 7 7 6 6 6 6 6 6 6 6 6 6 6 6
4 4 4 4 4 4 4 4 4 4 3 4 4 4 4 5 5 4 5 4 5 6 6 6 6 7 6 6 7 7 6 6 7 7 8 7 7 7 6 7 6 6 6 5 5 5 5 6 6 6 5 6
4 4 5 4 4 4 5 4 4 5 4 4 5 5 5 5 5 5 6 5 4 5 6 5 5 6 6 6 6 6 6 6 6 6 6 6 6 6 6 6 6 6 5 5 5 5 5 5 5 5 5 5
5 5 5 4 5 5 4 4 5 6 5 5 6 7 6 5 5 5 6 6 5 5 5 6 5 5 5 5 6 6 6 6 7 6 6 6 6 6 6 6 6 6 6 6 5 5 6 6 6 6 6 6
5 6 6 6 6 5 5 5 6 6 6 6 5 6 6 5 6 6 5 6 6 6 6 6 6 6 6 5 5 5 5 5 6 6 6 6 6 6 6 6 7 6 6 6 6 6 7 7 7 7 7 7
6 6 5 4 4 5 6 6 6 5 6 6 4 5 6 6 6 6 6 6 6 6 6 6 6 6 6 5 5 5 5 5 5 6 6 6 6 6 6 6 7 6 6 7 7 7 7 8 8 8 7 7
7 6 5 5 6 7 7 6 6 6 5 6 5 5 5 6 6 6 6 6 5 6 6 6 6 6 6 6 6 6 6 6 6 7 7 7 7 7 7 7 7 7 7 7 8 8 8 9 9 9 8 8
7 7 8 8 8 7 6 6 6 6 6 6 6 6 6 6 7 7 7 7 7 7 7 7 7 7 7 7 7 7 7 7 7 7 7 7 7 7 8 8 8 8 8 8 8 8 8 8 8 9 9 8
7 7 7 7 7 7 7 7 7 7 8 7 7 7 7 7 7 8 8 8 8 7 7 7 7 7 7 7 7 8 8 7 7 7 7 7 7 7 8 8 9 8 8 8 8 9 8 7 7 7 8 8
7 7 7 7 7 7 7 7 8 8 8 8 8 8 8 8 7 7 8 8 8 8 8 8 8 8 8 8 8 8 8 7 7 7 7 8 8 8 8 8 9 9 9 8 8 8 8 7 7 6 7 7
8 8 8 8 7 7 7 7 7 7 7 7 8 8 7 8 8 7 7 8 8 8 8 8 9 8 8 8 8 8 8 8 8 8 8 8 8 9 9 9 9 9 9 9 8 7 7 7 7 6 7 7
9 9 8 8 8 8 7 7 8 8 8 8 8 9 8 8 9 9 8 8 8 8 8 8 8 8 8 8 8 8 8 9 8 8 8 8 9 9 10 10 10 9 9 9 8 8 8 7 7 7 7 7
9 9 9 9 9 9 9 9 9 9 9 10 10 10 10 10 9 10 9 9 9 8 8 8 8 8 8 8 8 8 9 9 9 9 9 10 10 10 11 11 11 11 10 9 9 9 9 8 9 8 8 8
9 9 9 9 9 9 9 10 10 10 10 11 11 11 10 10 10 9 9 9 9 9 9 8 8 8 8 8 8 8 10 10 10 11 11 12 12 12 11 11 10 10 10 10 9 9 9 9 9 9 8 9
6 6 7 7 8 9 9 10 10 10 10 10 10 10 9 9 9 9 9 9 8 9 9 9 9 10 10 10 9 10 11 11 12 12 12 12 12 12 11 10 9 8 9 9 8 8 9 9 9 8 8 9
5 6 7 7 8 8 9 9 8 8 9 8 8 9 9 8 9 9 9 10 10 10 11 11 11 11 11 11 11 11 11 12 12 13 13 13 12 11 11 10 8 7 7 8 8 8 7 8 8 9 9 9
8 8 9 9 9 9 9 9 9 9 9 9 9 11 12 11 10 11 11 11 11 10 10 10 10 10 11 10 11 11 11 12 12 12 12 12 11 9 8 8 8 7 7 7 7 7 7 7 8 8 9 9
12 12 11 11 11 10 10 10 11 11 10 11 10 11 13 12 10 10 10 10 9 9 9 9 10 10 10 10 10 10 10 10 11 11 10 9 9 7 6 6 6 7 7 7 6 6 6 6 7 7 7 8
12 12 11 11 11 11 11 11 11 11 10 10 10 10 10 10 8 6 7 9 8 9 9 9 9 10 11 11 11 11 10 10 10 9 9 8 7 6 6 5 4 5 6 7 6 5 5 5 6 7 7 7
11 10 10 10 10 10 10 10 11 11 11 10 9 9 7 7 7 6 6 8 9 9 10 10 9 9 9 9 10 10 10 10 9 8 7 6 6 5 5 5 4 5 6 7 6 6 5 5 5 6 7 7
12 12 13 12 12 12 11 10 10 11 11 10 9 8 8 8 9 9 8 9 10 10 9 9 9 9 9 8 8 7 7 7 8 8 7 6 6 5 4 4 4 5 6 6 6 6 6 6 6 5 5 6
14 14 14 14 13 13 13 13 12 11 11 12 11 10 9 9 10 11 11 10 10 10 9 8 7 8 9 8 8 7 6 5 5 6 7 7 6 5 5 4 5 6 6 5 5 5 6 6 6 5 5 5
13 13 14 14 13 13 12 13 13 13 12 12 12 12 12 12 11 11 11 11 9 8 9 8 7 7 8 9 8 8 8 7 6 6 7 8 9 8 7 7 7 8 7 7 7 7 7 6 6 6 6 6
11 10 10 10 10 10 10 10 10 11 11 11 10 10 11 12 12 11 11 12 11 9 10 9 8 7 9 10 10 10 9 9 8 7 8 9 10 10 10 10 10 9 8 8 9 10 10 8 8 8 6 6
Height
5776 5776 5775 5775 5774 5774 5773 5772 5772 5772 5771 5771 5771 5771 5771 5771 5771 5771 5771 5772 5772 5773 5773 5773 5773 5773 5773 5773 5773 5773 5773 5773 5773 5774 5774 5775 5775 5775 5776 5776 5777 5778 5779 5779 5780 5781 5782 5782 5783 5784 5785 5786
5771 5771 5770 5769 5769 5768 5768 5767 5766 5766 5765 5765 5765 5765 5765 5765 5766 5766 5766 5766 5767 5767 5767 5767 5767 5767 5766 5766 5767 5767 5767 5767 5767 5768 5768 5769 5770 5770 5770 5770 5771 5771 5772 5773 5774 5775 5776 5776 5777 5777 5778 5779
5766 5765 5764 5764 5763 5762 5762 5761 5760 5760 5759 5759 5759 5759 5759 5759 5760 5760 5760 5760 5760 5761 5760 5760 5760 5760 5760 5760 5760 5761 5761 5761 5761 5762 5763 5764 5764 5765 5765 5765 5765 5765 5766 5766 5767 5768 5769 5770 5770 5771 5772 5773
5760 5759 5758 5758 5757 5756 5755 5755 5754 5754 5753 5753 5753 5753 5753 5753 5753 5754 5753 5753 5753 5753 5753 5753 5753 5754 5754 5754 5754 5755 5755 5755 5755 5756 5757 5757 5758 5759 5759 5759 5759 5759 5759 5760 5761 5762 5763 5763 5764 5764 5765 5766
5754 5753 5753 5752 5751 5750 5749 5748 5748 5748 5747 5747 5747 5746 5746 5746 5747 5747 5746 5746 5746 5746 5746 5746 5747 5747 5747 5747 5748 5748 5748 5749 5749 5749 5750 5751 5751 5752 5752 5752 5753 5753 5753 5754 5754 5755 5756 5757 5757 5758 5759 5760
5748 5748 5747 5746 5745 5744 5743 5743 5742 5742 5741 5741 5741 5740 5740 5740 5740 5739 5739 5740 5739 5740 5740 5739 5740 5740 5740 5740 5741 5741 5741 5742 5742 5743 5743 5744 5745 5745 5746 5746 5746 5746 5747 5747 5748 5749 5750 5751 5751 5752 5752 5753
5742 5742 5741 5739 5738 5738 5737 5737 5736 5736 5735 5735 5734 5734 5733 5733 5733 5732 5733 5733 5732 5733 5733 5732 5733 5733 5733 5733 5734 5734 5734 5735 5735 5736 5736 5737 5738 5739 5739 5740 5740 5740 5741 5741 5742 5742 5743 5744 5745 5746 5746 5747
5737 5735 5733 5733 5732 5731 5731 5730 5729 5729 5729 5728 5728 5727 5727 5726 5726 5725 5726 5726 5725 5726 5726 5725 5726 5726 5726 5726 5726 5727 5727 5727 5728 5728 5729 5730 5730 5731 5732 5733 5733 5734 5734 5735 5735 5736 5736 5737 5738 5739 5740 5740
5730 5727 5726 5726 5725 5724 5724 5723 5722 5723 5722 5721 5720 5720 5720 5719 5719 5718 5719 5720 5719 5718 5718 5718 5718 5718 5719 5719 5719 5719 5720 5720 5720 5721 5721 5722 5722 5723 5724 5725 5726 5727 5727 5728 5729 5730 5730 5731 5731 5732 5733 5734
5722 5720 5720 5719 5717 5717 5716 5715 5715 5715 5715 5714 5713 5713 5713 5711 5711 5711 5711 5712 5712 5710 5711 5711 5711 5711 5711 5711 5711 5711 5712 5712 5712 5712 5713 5713 5714 5714 5715 5716 5717 5718 5719 5720 5721 5722 5723 5724 5724 5725 5726 5726
5715 5713 5712 5711 5709 5709 5708 5708 5707 5707 5707 5708 5707 5705 5704 5703 5704 5704 5703 5704 5704 5703 5703 5703 5703 5703 5703 5703 5703 5703 5704 5703 5704 5704 5704 5705 5705 5706 5707 5707 5708 5710 5711 5712 5713 5714 5715 5716 5717 5718 5718 5719
5707 5706 5705 5703 5702 5700 5700 5700 5699 5699 5699 5701 5700 5696 5695 5695 5695 5696 5695 5696 5695 5694 5694 5694 5694 5694 5694 5695 5694 5695 5695 5695 5695 5695 5695 5696 5696 5697 5698 5699 5700 5701 5702 5703 5705 5706 5707 5708 5709 5710 5711 5712
5700 5698 5697 5695 5693 5692 5692 5692 5691 5691 5690 5692 5692 5688 5687 5687 5687 5687 5687 5688 5686 5686 5686 5685 5685 5686 5685 5686 5686 5686 5687 5686 5686 5686 5686 5687 5688 5688 5689 5690 5691 5692 5693 5694 5696 5697 5698 5699 5700 5701 5703 5704
5691 5689 5687 5686 5685 5684 5683 5683 5682 5682 5682 5683 5683 5680 5679 5678 5678 5678 5678 5679 5677 5677 5677 5676 5676 5676 5676 5676 5676 5677 5678 5677 5677 5677 5677 5678 5679 5679 5680 5681 5682 5683 5684 5685 5686 5688 5689 5690 5691 5692 5694 5695
5681 5679 5678 5677 5676 5675 5674 5674 5673 5673 5673 5674 5673 5672 5671 5670 5669 5669 5669 5669 5669 5668 5668 5667 5667 5667 5667 5667 5667 5668 5668 5667 5667 5668 5668 5669 5670 5670 5671 5672 5672 5674 5675 5676 5677 5678 5680 5681 5682 5683 5684 5686
5671 5670 5669 5668 5667 5666 5665 5665 5664 5663 5664 5664 5664 5663 5662 5661 5661 5660 5660 5660 5659 5659 5659 5658 5658 5658 5658 5658 5658 5659 5658 5658 5658 5658 5659 5659 5660 5661 5661 5662 5663 5664 5665 5666 5667 5668 5670 5671 5672 5673 5674 5676
5662 5661 5660 5659 5658 5657 5656 5655 5655 5654 5654 5654 5655 5654 5653 5652 5652 5652 5651 5650 5650 5650 5649 5649 5649 5648 5648 5649 5650 5648 5647 5648 5649 5649 5649 5650 5651 5651 5652 5653 5653 5654 5655 5657 5658 5659 5660 5661 5663 5664 5665 5666
5653 5652 5650 5649 5648 5647 5646 5646 5645 5644 5644 5644 5645 5645 5644 5642 5642 5643 5642 5640 5641 5640 5640 5640 5639 5639 5639 5640 5640 5638 5638 5639 5639 5639 5640 5640 5641 5642 5642 5643 5644 5644 5646 5647 5648 5649 5650 5651 5653 5654 5655 5656
5643 5642 5641 5640 5638 5638 5637 5636 5635 5635 5635 5635 5635 5635 5634 5633 5632 5634 5632 5631 5631 5630 5630 5630 5629 5629 5630 5631 5630 5628 5628 5629 5629 5629 5630 5631 5631 5632 5633 5633 5634 5635 5636 5637 5638 5639 5640 5641 5643 5644 5645 5646
5633 5632 5631 5630 5629 5628 5628 5627 5626 5626 5626 5625 5625 5625 5624 5624 5623 5624 5622 5621 5621 5620 5619 5620 5619 5619 5620 5621 5620 5618 5619 5619 5619 5620 5620 5621 5621 5622 5623 5623 5624 5625 5625 5627 5628 5629 5630 5631 5632 5634 5635 5636
5624 5623 5622 5621 5620 5619 5618 5618 5617 5616 5617 5616 5615 5615 5614 5613 5613 5613 5612 5611 5611 5610 5609 5610 5609 5609 5610 5610 5610 5609 5609 5609 5609 5610 5611 5611 5611 5612 5613 5614 5614 5614 5615 5616 5618 5619 5620 5621 5622 5624 5625 5626
5615 5613 5612 5612 5611 5610 5609 5609 5607 5606 5607 5606 5605 5604 5604 5603 5603 5602 5601 5601 5601 5599 5599 5599 5598 5599 5600 5600 5600 5599 5599 5599 5599 5600 5601 5602 5602 5602 5603 5604 5604 5605 5605 5606 5608 5609 5610 5611 5612 5613 5615 5617
5606 5605 5604 5603 5602 5601 5600 5599 5598 5597 5597 5596 5595 5593 5593 5593 5592 5591 5590 5590 5590 5589 5588 5588 5588 5589 5589 5589 5590 5589 5589 5589 5589 5590 5591 5592 5592 5592 5593 5594 5594 5594 5595 5596 5598 5599 5600 5601 5602 5603 5605 5606
5598 5596 5595 5594 5593 5592 5590 5588 5588 5587 5586 5586 5585 5582 5582 5582 5581 5580 5579 5579 5579 5579 5578 5578 5578 5578 5578 5579 5579 5578 5578 5578 5579 5580 5580 5581 5582 5583 5583 5583 5584 5584 5584 5586 5588 5589 5590 5592 5592 5593 5594 5596
5589 5587 5586 5584 5583 5581 5580 5578 5577 5577 5576 5575 5574 5572 5571 5571 5571 5570 5569 5568 5569 5568 5568 5568 5568 5568 5568 5568 5568 5568 5568 5568 5569 5569 5570 5571 5572 5573 5573 5574 5573 5573 5574 5576 5578 5579 5581 5582 5582 5583 5584 5585
5580 5578 5576 5574 5572 5571 5569 5567 5566 5566 5565 5564 5563 5562 5560 5560 5560 5559 5558 5558 5557 5557 5557 5557 5557 5557 5557 5557 5557 5557 5558 5558 5558 5559 5559 5560 5562 5563 5563 5564 5563 5563 5563 5565 5567 5568 5570 5572 5572 5573 5574 5575
5570 5568 5566 5564 5562 5561 5559 5557 5556 5555 5554 5554 5553 5551 5550 5549 5549 5549 5548 5547 5547 5546 5546 5547 5547 5547 5546 5546 5546 5547 5547 5547 5548 5548 5549 5550 5551 5553 5553 5553 5553 5553 5553 5554 5556 5557 5559 5561 5562 5564 5563 5563
5560 5558 5556 5554 5552 5551 5549 5547 5546 5545 5544 5543 5542 5541 5540 5539 5538 5538 5537 5536 5536 5536 5536 5536 5537 5536 5535 5534 5535 5536 5536 5537 5537 5537 5538 5539 5540 5541 5541 5542 5543 5543 5543 5544 5545 5546 5549 5550 5551 5555 5554 5554
5550 5548 5546 5544 5542 5540 5539 5537 5536 5535 5533 5532 5532 5530 5529 5528 5527 5527 5526 5526 5526 5525 5525 5526 5526 5525 5523 5524 5524 5525 5525 5526 5526 5526 5527 5528 5529 5529 5530 5532 5533 5534 5533 5533 5534 5535 5537 5539 5540 5543 5544 5545
5541 5539 5536 5534 5532 5531 5529 5527 5526 5525 5523 5522 5521 5520 5519 5517 5517 5516 5515 5515 5515 5514 5514 5515 5516 5514 5512 5513 5513 5513 5514 5514 5515 5515 5516 5516 5517 5518 5518 5520 5522 5524 5523 5523 5523 5524 5525 5527 5529 5532 5533 5533
5532 5529 5527 5524 5523 5521 5519 5518 5516 5515 5513 5512 5511 5509 5508 5507 5506 5506 5504 5503 5503 5503 5503 5504 5505 5502 5501 5502 5502 5502 5502 5503 5503 5504 5504 5505 5505 5506 5507 5508 5510 5512 5512 5513 5513 5513 5514 5516 5517 5520 5522 5522